Data for 12/10/2016

Time Sea-Level Adjusted Pressure Absolute Pressure Temperature Relative Humidity Dew Point   
(mb) (inHg) (mb) (inHg) (C) (F) (%) (C) (F)
00:05 1015 29.97 844 24.92 -11.9 10.5 87 -13.7 7.3
00:10 1015 29.97 844 24.92 -11.8 10.8 86 -13.6 7.5
00:15 1015 29.97 844 24.92 -11.7 11 86 -13.6 7.5
00:20 1015 29.97 844 24.92 -11.7 11 85 -13.7 7.4
00:25 1015 29.97 844 24.92 -11.7 11 85 -13.8 7.2
00:30 1015 29.97 844 24.92 -11.7 10.9 84 -13.9 7
00:35 1014 29.94 844 24.92 -12 10.5 85 -13.9 6.9
00:40 1014 29.94 844 24.92 -12.1 10.3 86 -14 6.8
00:45 1014 29.94 844 24.92 -12.1 10.2 85 -14.1 6.7
00:50 1014 29.94 844 24.92 -12.2 10.1 86 -14 6.7
00:55 1014 29.94 843 24.89 -12 10.4 86 -13.9 7
01:00 1014 29.94 843 24.89 -11.8 10.7 85 -13.8 7.1
01:05 1014 29.94 843 24.89 -11.8 10.8 85 -13.8 7.2
01:10 1014 29.94 843 24.89 -11.7 11 85 -13.7 7.3
01:15 1014 29.94 843 24.89 -11.6 11.1 84 -13.8 7.2
01:20 1014 29.94 843 24.89 -11.7 11 84 -13.8 7.1
01:25 1014 29.94 843 24.89 -11.8 10.8 85 -13.9 7
01:30 1014 29.94 843 24.89 -11.8 10.7 84 -13.9 6.9
01:35 1014 29.94 843 24.89 -12 10.5 85 -14 6.9
01:40 1014 29.94 843 24.89 -12 10.5 85 -14 6.8
01:45 1014 29.94 843 24.89 -11.9 10.6 85 -14 6.8
01:50 1014 29.94 843 24.89 -11.9 10.7 84 -14.1 6.7
01:55 1014 29.94 843 24.89 -12 10.5 84 -14.1 6.6
02:00 1014 29.94 843 24.89 -12.2 10.1 85 -14.3 6.3
02:05 1013 29.91 843 24.89 -12.4 9.6 86 -14.4 6.1
02:10 1013 29.91 843 24.89 -12.4 9.8 86 -14.3 6.3
02:15 1013 29.91 843 24.89 -12.2 10 85 -14.2 6.4
02:20 1013 29.91 842 24.86 -12.3 9.9 86 -14.2 6.4
02:25 1013 29.91 842 24.86 -12.4 9.7 85 -14.4 6.2
02:30 1013 29.91 842 24.86 -12.5 9.5 86 -14.4 6.1
02:35 1013 29.91 842 24.86 -12.5 9.6 86 -14.4 6.1
02:40 1013 29.91 842 24.86 -12.5 9.5 86 -14.3 6.3
02:45 1013 29.91 842 24.86 -12.3 9.9 86 -14.1 6.6
02:50 1013 29.91 842 24.86 -12.1 10.3 85 -14.1 6.6
02:55 1013 29.91 842 24.86 -12 10.3 84 -14.2 6.5
03:00 1013 29.91 842 24.86 -12.1 10.2 85 -14.2 6.5
03:05 1013 29.91 842 24.86 -12.2 10.1 85 -14.2 6.4
03:10 1013 29.91 842 24.86 -12.2 10 85 -14.2 6.5
03:15 1013 29.91 842 24.86 -12.1 10.2 85 -14.2 6.5
03:20 1013 29.91 842 24.86 -12.2 10 85 -14.2 6.5
03:25 1013 29.91 842 24.86 -12.2 10.1 85 -14.1 6.6
03:30 1013 29.91 842 24.86 -12 10.4 85 -14 6.8
03:35 1013 29.91 842 24.86 -11.9 10.7 85 -13.9 7
03:40 1013 29.91 842 24.86 -11.8 10.8 85 -13.9 7
03:45 1013 29.91 842 24.86 -11.8 10.9 85 -13.8 7.1
03:50 1012 29.88 842 24.86 -11.8 10.8 84 -13.9 7
03:55 1012 29.88 842 24.86 -11.8 10.8 85 -13.9 7
04:00 1012 29.88 841 24.83 -11.9 10.6 85 -13.9 6.9
04:05 1012 29.88 841 24.83 -11.9 10.6 85 -13.9 6.9
04:10 1012 29.88 841 24.83 -11.8 10.8 85 -13.8 7.2
04:15 1012 29.88 841 24.83 -11.7 10.9 85 -13.8 7.2
04:20 1012 29.88 841 24.83 -11.8 10.9 85 -13.8 7.2
04:25 1012 29.88 841 24.83 -11.7 11 85 -13.7 7.4
04:30 1012 29.88 841 24.83 -11.7 11 86 -13.6 7.5
04:35 1012 29.88 841 24.83 -11.6 11.1 86 -13.5 7.6
04:40 1012 29.88 841 24.83 -11.6 11.1 85 -13.6 7.6
04:45 1011 29.85 841 24.83 -11.6 11.1 86 -13.5 7.7
04:50 1011 29.85 841 24.83 -11.5 11.3 86 -13.4 7.8
04:55 1011 29.85 840 24.81 -11.4 11.5 85 -13.4 7.9
05:00 1011 29.85 840 24.81 -11.3 11.6 86 -13.3 8.1
05:05 1011 29.85 840 24.81 -11.2 11.8 85 -13.2 8.2
05:10 1011 29.85 840 24.81 -11.1 12.1 84 -13.2 8.2
05:15 1011 29.85 840 24.81 -11 12.3 85 -13 8.7
05:20 1011 29.85 840 24.81 -10.8 12.5 85 -13 8.7
05:25 1011 29.85 840 24.81 -10.8 12.5 85 -12.9 8.8
05:30 1011 29.85 840 24.81 -10.8 12.6 85 -12.8 8.9
05:35 1011 29.85 840 24.81 -10.7 12.8 85 -12.8 9
05:40 1011 29.85 840 24.81 -10.6 12.9 85 -12.7 9.1
05:45 1011 29.85 840 24.81 -10.5 13.2 85 -12.5 9.4
05:50 1011 29.85 840 24.81 -10.3 13.5 85 -12.4 9.7
05:55 1010 29.83 840 24.81 -10.2 13.6 85 -12.3 9.8
06:00 1010 29.83 839 24.78 -10.2 13.7 84 -12.3 9.8
06:05 1010 29.83 839 24.78 -10.2 13.6 84 -12.4 9.7
06:10 1010 29.83 839 24.78 -10.2 13.7 84 -12.4 9.7
06:15 1010 29.83 839 24.78 -10.2 13.6 84 -12.4 9.6
06:20 1010 29.83 839 24.78 -10.3 13.5 84 -12.5 9.6
06:25 1010 29.83 839 24.78 -10.3 13.4 84 -12.5 9.5
06:30 1010 29.83 839 24.78 -10.4 13.3 84 -12.6 9.3
06:35 1010 29.83 839 24.78 -10.5 13.1 84 -12.7 9.2
06:40 1010 29.83 839 24.78 -10.6 13 85 -12.7 9.1
06:45 1010 29.83 839 24.78 -10.8 12.6 85 -12.8 9
06:50 1010 29.83 839 24.78 -10.9 12.4 86 -12.9 8.8
06:55 1010 29.83 839 24.78 -11 12.2 86 -12.9 8.7
07:00 1010 29.83 839 24.78 -11 12.2 86 -12.9 8.8
07:05 1010 29.83 839 24.78 -10.9 12.3 86 -12.8 8.9
07:10 1010 29.83 839 24.78 -10.9 12.5 86 -12.7 9.1
07:15 1010 29.83 839 24.78 -10.8 12.7 86 -12.7 9.2
07:20 1010 29.83 839 24.78 -10.7 12.8 86 -12.6 9.3
07:25 1010 29.83 839 24.78 -10.6 12.9 86 -12.6 9.3
07:30 1010 29.83 839 24.78 -10.5 13 86 -12.5 9.5
07:35 1010 29.83 839 24.78 -10.5 13.1 85 -12.5 9.5
07:40 1010 29.83 839 24.78 -10.5 13.2 85 -12.5 9.5
07:45 1010 29.83 839 24.78 -10.5 13.1 85 -12.5 9.5
07:50 1010 29.83 839 24.78 -10.5 13.2 85 -12.5 9.5
07:55 1010 29.83 839 24.78 -10.5 13.2 85 -12.5 9.4
08:00 1009 29.8 839 24.78 -10.5 13.1 85 -12.5 9.5
08:05 1009 29.8 839 24.78 -10.6 13 85 -12.6 9.4
08:10 1009 29.8 838 24.75 -10.6 12.9 86 -12.6 9.3
08:15 1009 29.8 838 24.75 -10.7 12.8 86 -12.5 9.4
08:20 1009 29.8 838 24.75 -10.6 12.8 86 -12.5 9.4
08:25 1009 29.8 838 24.75 -10.7 12.8 87 -12.5 9.5
08:30 1009 29.8 838 24.75 -10.7 12.7 87 -12.5 9.5
08:35 1008 29.77 838 24.75 -10.6 12.8 87 -12.5 9.6
08:40 1008 29.77 838 24.75 -10.5 13.1 87 -12.3 9.8
08:45 1008 29.77 838 24.75 -10.2 13.6 85 -12.2 10
08:50 1008 29.77 837 24.72 -10.2 13.6 85 -12.2 10
08:55 1008 29.77 837 24.72 -10.2 13.7 86 -12.2 10.1
09:00 1008 29.77 837 24.72 -10.2 13.6 86 -12.2 10
09:05 1008 29.77 837 24.72 -10.2 13.6 88 -11.8 10.7
09:10 1008 29.77 837 24.72 -9.7 14.6 85 -11.7 10.9
09:15 1008 29.77 837 24.72 -9.4 15.1 84 -11.6 11
09:20 1008 29.77 837 24.72 -9.4 15.1 84 -11.5 11.2
09:25 1008 29.77 837 24.72 -9.3 15.3 84 -11.5 11.3
09:30 1008 29.77 837 24.72 -9.3 15.2 84 -11.5 11.4
09:35 1008 29.77 837 24.72 -9.4 15.1 85 -11.4 11.4
09:40 1008 29.77 837 24.72 -9.3 15.3 84 -11.5 11.3
09:45 1008 29.77 837 24.72 -9.3 15.3 84 -11.5 11.3
09:50 1008 29.77 837 24.72 -9.2 15.4 84 -11.5 11.4
09:55 1008 29.77 837 24.72 -9.2 15.4 84 -11.4 11.5
10:00 1008 29.77 837 24.72 -9.1 15.5 84 -11.3 11.7
10:05 1007 29.74 837 24.72 -9 15.9 84 -11.2 11.8
10:10 1007 29.74 837 24.72 -8.9 16.1 84 -11.1 12
10:15 1007 29.74 837 24.72 -8.8 16.1 83 -11.2 11.9
10:20 1007 29.74 836 24.69 -8.9 16.1 84 -11 12.1
10:25 1007 29.74 836 24.69 -8.6 16.5 84 -10.9 12.4
10:30 1007 29.74 836 24.69 -8.3 17 84 -10.6 12.9
10:35 1007 29.74 836 24.69 -8 17.7 83 -10.4 13.3
10:40 1007 29.74 836 24.69 -7.6 18.3 82 -10.1 13.7
10:45 1007 29.74 836 24.69 -7.3 18.8 81 -10.1 13.8
10:50 1007 29.74 836 24.69 -7.1 19.1 79 -10.2 13.6
10:55 1007 29.74 836 24.69 -7 19.4 78 -10.2 13.6
11:00 1007 29.74 836 24.69 -7.1 19.2 79 -10.2 13.6
11:05 1007 29.74 836 24.69 -7.2 19 80 -10.2 13.7
11:10 1007 29.74 836 24.69 -7 19.4 78 -10.1 13.8
11:15 1007 29.74 836 24.69 -7 19.3 79 -10 13.9
11:20 1007 29.74 836 24.69 -7.2 19.1 79 -10.2 13.6
11:25 1007 29.74 836 24.69 -7 19.4 79 -10.1 13.8
11:30 1007 29.74 836 24.69 -6.9 19.5 79 -10 14
11:35 1007 29.74 836 24.69 -6.7 20 77 -10 14
11:40 1007 29.74 836 24.69 -6.7 19.9 77 -10.1 13.9
11:45 1007 29.74 837 24.72 -6.9 19.7 77 -10.2 13.6
11:50 1007 29.74 837 24.72 -6.9 19.5 77 -10.3 13.4
11:55 1007 29.74 837 24.72 -7.4 18.7 79 -10.5 13.2
12:00 1007 29.74 837 24.72 -8.1 17.4 82 -10.7 12.7
12:05 1007 29.74 836 24.69 -8.5 16.8 82 -11 12.3
12:10 1007 29.74 836 24.69 -8.6 16.4 84 -10.9 12.3
12:15 1007 29.74 836 24.69 -8.6 16.5 84 -10.8 12.6
12:20 1007 29.74 836 24.69 -8.5 16.7 83 -10.9 12.5
12:25 1007 29.74 836 24.69 -8.5 16.6 85 -10.7 12.8
12:30 1007 29.74 836 24.69 -8.6 16.6 86 -10.5 13.1
12:35 1007 29.74 836 24.69 -8.5 16.7 87 -10.3 13.5
12:40 1007 29.74 836 24.69 -8.4 17 87 -10.1 13.8
12:45 1007 29.74 836 24.69 -8.1 17.5 88 -9.8 14.4
12:50 1006 29.71 836 24.69 -7.9 17.8 87 -9.7 14.6
12:55 1006 29.71 835 24.66 -7.6 18.3 86 -9.5 14.8
13:00 1006 29.71 835 24.66 -7.3 18.9 87 -9.2 15.5
13:05 1006 29.71 835 24.66 -6.8 19.7 87 -8.7 16.4
13:10 1006 29.71 835 24.66 -6.2 20.8 86 -8.3 17.1
13:15 1006 29.71 835 24.66 -5.8 21.6 85 -7.9 17.8
13:20 1006 29.71 835 24.66 -5.5 22.2 85 -7.6 18.3
13:25 1006 29.71 835 24.66 -5.3 22.5 84 -7.6 18.4
13:30 1006 29.71 835 24.66 -5.2 22.6 84 -7.5 18.5
13:35 1006 29.71 835 24.66 -4.7 23.5 82 -7.3 18.8
13:40 1006 29.71 835 24.66 -4.1 24.6 84 -6.4 20.4
13:45 1006 29.71 835 24.66 -3.8 25.2 83 -6.2 20.9
13:50 1006 29.71 835 24.66 -3.4 25.8 81 -6.2 20.8
13:55 1006 29.71 835 24.66 -3.4 25.8 82 -6 21.2
14:00 1006 29.71 835 24.66 -3 26.7 83 -5.5 22.1
14:05 1006 29.71 835 24.66 -2.5 27.5 84 -4.9 23.2
14:10 1006 29.71 835 24.66 -2.2 28 86 -4.3 24.3
14:15 1006 29.71 835 24.66 -1.8 28.7 87 -3.7 25.3
14:20 1006 29.71 835 24.66 -1.5 29.3 87 -3.4 26
14:25 1006 29.71 835 24.66 -1.3 29.7 87 -3.1 26.3
14:30 1006 29.71 835 24.66 -0.9 30.3 87 -2.8 26.9
14:35 1006 29.71 835 24.66 -0.4 31.3 85 -2.7 27.2
14:40 1006 29.71 836 24.69 -0.3 31.5 85 -2.5 27.5
14:45 1007 29.74 836 24.69 -0.3 31.5 85 -2.5 27.4
14:50 1007 29.74 836 24.69 -0.4 31.3 86 -2.5 27.6
14:55 1007 29.74 836 24.69 -0.5 31.1 87 -2.5 27.5
15:00 1007 29.74 836 24.69 -0.7 30.8 87 -2.5 27.4
15:05 1007 29.74 836 24.69 -0.8 30.6 88 -2.6 27.3
15:10 1007 29.74 836 24.69 -0.9 30.4 89 -2.5 27.5
15:15 1007 29.74 836 24.69 -1 30.1 91 -2.4 27.7
15:20 1007 29.74 836 24.69 -1.2 29.8 91 -2.5 27.5
15:25 1007 29.74 836 24.69 -1.3 29.7 92 -2.5 27.5
15:30 1007 29.74 837 24.72 -1.2 29.8 92 -2.3 27.8
15:35 1007 29.74 837 24.72 -1.1 30.1 93 -2.1 28.2
15:40 1007 29.74 837 24.72 -1 30.3 93 -2 28.4
15:45 1008 29.77 837 24.72 -0.8 30.6 91 -2 28.3
15:50 1008 29.77 837 24.72 -1.1 30.1 90 -2.6 27.4
15:55 1008 29.77 837 24.72 -1.7 28.9 89 -3.3 26.1
16:00 1008 29.77 838 24.75 -2.1 28.2 89 -3.7 25.4
16:05 1008 29.77 838 24.75 -2.3 27.8 89 -4 24.9
16:10 1009 29.8 838 24.75 -2.5 27.5 88 -4.2 24.4
16:15 1009 29.8 838 24.75 -2.8 27 88 -4.5 24
16:20 1009 29.8 838 24.75 -2.9 26.8 89 -4.4 24.1
16:25 1009 29.8 838 24.75 -2.9 26.8 88 -4.6 23.8
16:30 1009 29.8 838 24.75 -3.3 26 88 -5 23
16:35 1009 29.8 838 24.75 -3.8 25.2 89 -5.2 22.6
16:40 1009 29.8 838 24.75 -3.8 25.1 91 -5.1 22.7
16:45 1009 29.8 838 24.75 -3.6 25.5 91 -5 23.1
16:50 1009 29.8 838 24.75 -3.5 25.7 91 -4.8 23.3
16:55 1009 29.8 838 24.75 -3.3 26.1 90 -4.7 23.6
17:00 1009 29.8 838 24.75 -3.1 26.4 90 -4.6 23.8
17:05 1009 29.8 838 24.75 -3 26.6 89 -4.5 23.9
17:10 1009 29.8 838 24.75 -2.7 27.2 88 -4.4 24.2
17:15 1009 29.8 838 24.75 -2.5 27.5 87 -4.3 24.2
17:20 1009 29.8 838 24.75 -2.3 27.8 86 -4.4 24
17:25 1009 29.8 838 24.75 -2.3 27.9 85 -4.6 23.8
17:30 1009 29.8 838 24.75 -2.3 27.8 84 -4.6 23.6
17:35 1009 29.8 838 24.75 -2.2 28.1 83 -4.7 23.6
17:40 1009 29.8 838 24.75 -2.1 28.1 83 -4.6 23.6
17:45 1009 29.8 838 24.75 -2.1 28.2 83 -4.6 23.7
17:50 1009 29.8 838 24.75 -2.1 28.2 83 -4.6 23.8
17:55 1009 29.8 839 24.78 -2 28.3 83 -4.6 23.7
18:00 1010 29.83 839 24.78 -2 28.4 83 -4.5 23.8
18:05 1009 29.8 839 24.78 -1.9 28.5 83 -4.5 23.9
18:10 1010 29.83 839 24.78 -1.9 28.6 83 -4.4 24.1
18:15 1010 29.83 839 24.78 -2 28.4 84 -4.4 24.2
18:20 1010 29.83 839 24.78 -2.2 28 85 -4.4 24.2
18:25 1010 29.83 839 24.78 -2.2 28 85 -4.4 24.1
18:30 1010 29.83 839 24.78 -2.2 28 85 -4.4 24.1
18:35 1010 29.83 839 24.78 -2.2 28 85 -4.4 24.1
18:40 1010 29.83 839 24.78 -2.3 27.9 85 -4.5 23.9
18:45 1010 29.83 839 24.78 -2.5 27.6 86 -4.5 23.9
18:50 1010 29.83 839 24.78 -2.8 27 88 -4.5 23.9
18:55 1010 29.83 839 24.78 -2.8 26.9 88 -4.6 23.7
19:00 1010 29.83 839 24.78 -2.7 27.2 85 -4.8 23.3
19:05 1010 29.83 839 24.78 -2.6 27.3 85 -4.8 23.3
19:10 1010 29.83 839 24.78 -2.6 27.3 84 -5 23
19:15 1010 29.83 839 24.78 -2.8 26.9 85 -5 23
19:20 1010 29.83 839 24.78 -2.7 27.1 84 -5 23
19:25 1010 29.83 839 24.78 -2.8 27 85 -5 22.9
19:30 1010 29.83 839 24.78 -2.9 26.8 84 -5.2 22.6
19:35 1010 29.83 839 24.78 -3 26.6 84 -5.3 22.5
19:40 1010 29.83 839 24.78 -3 26.5 84 -5.3 22.4
19:45 1010 29.83 839 24.78 -3.1 26.4 83 -5.5 22.1
19:50 1010 29.83 839 24.78 -3.5 25.7 85 -5.7 21.8
19:55 1010 29.83 839 24.78 -3.6 25.6 85 -5.8 21.6
20:00 1010 29.83 839 24.78 -3.4 25.8 84 -5.8 21.5
20:05 1010 29.83 839 24.78 -3.9 25 87 -5.8 21.6
20:10 1010 29.83 839 24.78 -4.7 23.5 89 -6.3 20.7
20:15 1010 29.83 839 24.78 -5.3 22.5 91 -6.5 20.2
20:20 1010 29.83 839 24.78 -5.5 22.1 92 -6.6 20.2
20:25 1010 29.83 839 24.78 -5.5 22.1 92 -6.6 20.2
20:30 1010 29.83 839 24.78 -5.3 22.4 93 -6.2 20.8
20:35 1010 29.83 839 24.78 -5 23 93 -6 21.3
20:40 1010 29.83 840 24.81 -4.8 23.4 92 -5.9 21.3
20:45 1010 29.83 840 24.81 -4.9 23.2 92 -6 21.1
20:50 1010 29.83 840 24.81 -5 23 90 -6.4 20.6
20:55 1011 29.85 840 24.81 -5.4 22.2 90 -6.8 19.7
21:00 1011 29.85 840 24.81 -5.7 21.7 90 -7 19.3
21:05 1011 29.85 840 24.81 -5.9 21.4 92 -6.9 19.6
21:10 1011 29.85 840 24.81 -5.7 21.7 93 -6.7 20
21:15 1011 29.85 840 24.81 -5.8 21.6 93 -6.8 19.8
21:20 1011 29.85 840 24.81 -5.7 21.8 93 -6.6 20.1
21:25 1011 29.85 840 24.81 -5.7 21.8 91 -6.9 19.5
21:30 1011 29.85 840 24.81 -6.3 20.7 92 -7.4 18.6
21:35 1011 29.85 840 24.81 -6.2 20.8 93 -7.2 19.1
21:40 1011 29.85 840 24.81 -6.4 20.5 93 -7.3 18.9
21:45 1011 29.85 840 24.81 -5.8 21.6 94 -6.6 20.2
21:50 1011 29.85 840 24.81 -5.8 21.6 92 -7 19.5
21:55 1011 29.85 840 24.81 -6.4 20.4 91 -7.7 18.2
22:00 1011 29.85 840 24.81 -6.8 19.7 90 -8.1 17.3
22:05 1011 29.85 840 24.81 -7.4 18.7 90 -8.7 16.3
22:10 1011 29.85 840 24.81 -7.8 18 91 -9.1 15.7
22:15 1011 29.85 840 24.81 -7.8 18 92 -8.9 16
22:20 1011 29.85 840 24.81 -7.4 18.6 92 -8.5 16.8
22:25 1011 29.85 840 24.81 -7.1 19.3 93 -8.1 17.5
22:30 1011 29.85 840 24.81 -7.1 19.3 91 -8.2 17.2
22:35 1011 29.85 841 24.83 -7.1 19.3 89 -8.6 16.5
22:40 1011 29.85 841 24.83 -6.9 19.5 86 -8.9 16
22:45 1011 29.85 841 24.83 -7 19.3 86 -9 15.8
22:50 1012 29.88 841 24.83 -7.1 19.3 86 -9 15.8
22:55 1012 29.88 841 24.83 -7.3 19 87 -9.1 15.7
23:00 1012 29.88 841 24.83 -6.8 19.8 82 -9.3 15.3
23:05 1012 29.88 841 24.83 -6.6 20.1 82 -9.3 15.3
23:10 1012 29.88 841 24.83 -7.1 19.3 82 -9.6 14.7
23:15 1012 29.88 841 24.83 -7 19.4 82 -9.7 14.6
23:20 1012 29.88 841 24.83 -6.9 19.7 79 -9.8 14.3
23:25 1012 29.88 841 24.83 -6.9 19.6 80 -9.8 14.3
23:30 1012 29.88 841 24.83 -6.9 19.7 78 -10.1 13.9
23:35 1012 29.88 841 24.83 -7.1 19.2 79 -10.2 13.7
23:40 1012 29.88 841 24.83 -7.3 18.9 79 -10.3 13.4
23:45 1012 29.88 841 24.83 -7.4 18.8 81 -10.1 13.8
23:50 1012 29.88 841 24.83 -7.4 18.7 79 -10.4 13.3
23:55 1012 29.88 841 24.83 -7.7 18.2 76 -11.3 11.7
24:00 1012 29.88 841 24.83 -9.1 15.6 84 -11.3 11.7